Flag for U.S.A. Weather past 2 weeks in St. George, Utah, U.S.A.

Now
54 °F

Overcast.


Feels Like: 53 °F
Forecast: 54 / 70 °F
Wind: 5 mph from Southeast

Location: Saint George

Current Time: May 23, 2015 at 7:31:28 AM

Latest Report: May 23, 2015 at 6:55 AM


Visibility: 10 mi

Pressure: 29.98 "Hg

Humidity: 72%

Dew point: 45 °F

Location of St. GeorgeLocation

Historic Weather in St. George — Graph

°F

St. George temperature yesterday

Maximum temperature yesterday: 72 °F (at 11:55 AM)
Minimum temperature yesterday: 57 °F (at 5:55 AM)
Average temperature yesterday: 62 °F

Past Weeks' High & Low Weather Summary

 TemperatureHumidityPressure
High86 °F (May 11, 4:15 PM)82% (May 10, 2:35 AM)30.09 "Hg (May 10, 2:35 AM)
Low45 °F (May 9, 3:55 AM)11% (May 11, 2:55 PM)29.67 "Hg (May 14, 2:55 PM)
Average63 °F36%29.91 "Hg
* Reported May 8 6:15 AM — May 23 6:35 AM, St. George, Weather by CustomWeather, © 2015

Note: Actual official high and low records may vary slightly from our data, if they occured in-between our weather recording intervals... More about our weather records

Advertising

St. George weather history for previous 24 hours

 ConditionsComfort  
Time TempWeatherWind HumidityBarometerVisibility
6:35 AM
Sat, May 23
52 °FOvercast.5 mph77%29.97 "Hg10 mi
6:15 AM54 °FOvercast.6 mph72%29.97 "Hg10 mi
5:55 AM54 °FOvercast.6 mph72%29.97 "Hg10 mi
5:35 AM55 °FOvercast.6 mph63%29.97 "Hg10 mi
5:15 AM55 °FOvercast.7 mph59%29.97 "Hg10 mi
4:55 AM55 °FOvercast.No wind59%29.97 "Hg10 mi
4:35 AM55 °FOvercast.6 mph59%29.97 "Hg10 mi
4:15 AM55 °FPassing clouds.7 mph59%29.97 "Hg10 mi
3:55 AM55 °FOvercast.6 mph59%29.97 "Hg10 mi
3:35 AM55 °FOvercast.7 mph59%29.97 "Hg10 mi
3:15 AM55 °FOvercast.6 mph59%29.97 "Hg10 mi
2:55 AM55 °FMostly cloudy.6 mph59%29.97 "Hg10 mi
2:35 AM55 °FMostly cloudy.6 mph63%29.97 "Hg10 mi
2:15 AM55 °FOvercast.9 mph63%29.97 "Hg10 mi
1:55 AM55 °FPassing clouds.8 mph63%29.97 "Hg10 mi
1:35 AM55 °FPassing clouds.8 mph59%29.97 "Hg10 mi
1:15 AM55 °FPartly cloudy.7 mph59%29.97 "Hg10 mi
12:55 AM55 °FOvercast.9 mph55%29.97 "Hg10 mi
12:35 AM55 °FOvercast.10 mph59%29.97 "Hg10 mi
11:55 PM
Fri, May 22
57 °FMostly cloudy.9 mph51%29.96 "Hg10 mi
11:35 PM57 °FMostly cloudy.8 mph51%29.96 "Hg10 mi
11:15 PM57 °FMostly cloudy.9 mph51%29.97 "Hg10 mi
10:55 PM57 °FPartly cloudy.9 mph51%29.96 "Hg10 mi
10:35 PM57 °FPassing clouds.7 mph51%29.96 "Hg10 mi
10:15 PM57 °FOvercast.8 mph51%29.96 "Hg10 mi
9:55 PM59 °FOvercast.7 mph48%29.95 "Hg10 mi
9:35 PM59 °FMostly cloudy.6 mph45%29.95 "Hg10 mi
9:15 PM61 °FPartly sunny.6 mph42%29.95 "Hg10 mi
8:55 PM59 °FScattered clouds.5 mph45%29.95 "Hg10 mi
8:35 PM61 °FPartly sunny.7 mph42%29.94 "Hg10 mi
8:15 PM61 °FOvercast.6 mph45%29.94 "Hg10 mi
7:55 PM61 °FScattered clouds.7 mph42%29.94 "Hg10 mi
7:35 PM61 °FPassing clouds.7 mph45%29.93 "Hg10 mi
7:15 PM61 °FBroken clouds.8 mph45%29.93 "Hg10 mi
6:55 PM59 °FScattered clouds.8 mph48%29.93 "Hg10 mi
6:35 PM61 °FScattered clouds.13 mph45%29.93 "Hg10 mi
6:15 PM61 °FPartly sunny.9 mph42%29.94 "Hg10 mi
5:55 PM61 °FPartly sunny.12 mph42%29.93 "Hg10 mi
5:35 PM63 °FPartly sunny.14 mph39%29.93 "Hg10 mi
5:15 PM63 °FPassing clouds.14 mph39%29.93 "Hg10 mi
4:55 PM63 °FScattered clouds.16 mph39%29.92 "Hg10 mi
4:35 PM64 °FPartly sunny.20 mph34%29.91 "Hg10 mi
4:15 PM64 °FPartly sunny.21 mph34%29.91 "Hg10 mi
3:55 PM64 °FPartly sunny.16 mph34%29.90 "Hg10 mi
3:35 PM64 °FScattered clouds.21 mph34%29.90 "Hg10 mi
3:15 PM64 °FPassing clouds.24 mph37%29.89 "Hg10 mi
2:55 PM63 °FPassing clouds.29 mph42%29.88 "Hg10 mi
2:35 PM63 °FPartly sunny.31 mph42%29.88 "Hg10 mi
2:15 PM70 °FScattered clouds.17 mph27%29.87 "Hg10 mi
1:55 PM70 °FPassing clouds.12 mph27%29.86 "Hg10 mi
1:35 PM70 °FScattered clouds.9 mph29%29.86 "Hg10 mi
1:15 PM66 °FScattered clouds.6 mph32%29.86 "Hg10 mi
12:55 PM64 °FBroken clouds.9 mph37%29.87 "Hg9 mi
12:35 PM70 °FPartly sunny.8 mph25%29.88 "Hg10 mi
12:15 PM72 °FSunny.13 mph23%29.86 "Hg10 mi
11:55 AM72 °FSunny.8 mph22%29.87 "Hg10 mi
11:35 AM70 °FScattered clouds.6 mph23%29.87 "Hg10 mi
11:15 AM68 °FPartly sunny.7 mph24%29.88 "Hg10 mi
10:55 AM68 °FPassing clouds.6 mph23%29.88 "Hg10 mi
10:35 AM68 °FSunny.6 mph24%29.89 "Hg10 mi
10:15 AM66 °FSunny.5 mph24%29.89 "Hg10 mi
9:55 AM64 °FPassing clouds.3 mph26%29.90 "Hg10 mi
9:35 AM64 °FScattered clouds.5 mph26%29.90 "Hg10 mi
9:15 AM63 °FSunny.6 mph27%29.90 "Hg10 mi
8:55 AM63 °FSunny.3 mph27%29.89 "Hg10 mi
8:35 AM61 °FPassing clouds.No wind29%29.89 "Hg10 mi
8:15 AM61 °FSunny.No wind29%29.89 "Hg10 mi
7:55 AM61 °FSunny.3 mph29%29.89 "Hg10 mi
7:35 AM61 °FPassing clouds.3 mph27%29.89 "Hg10 mi
7:15 AM61 °FPassing clouds.3 mph27%29.88 "Hg10 mi
Weather by CustomWeather, © 2015

See weather overviewHow to use our weather pages